Wind_Speed
32 33 33 35 38 40 41 42 43 43 44 45 47 48 50 52 55 59 61 63 63 62 64 64 62 59 59 58 59 59 57 60 66 66 65 66 63 63 53 55 53 54 47
36 36 38 41 42 44 44 44 45 45 46 47 49 51 51 52 54 54 54 55 57 59 59 61 62 62 59 58 55 57 55 50 51 54 64 51 63 64 52 56 53 48 47
40 42 44 46 47 47 48 49 50 50 50 52 54 55 55 53 54 54 55 55 56 57 57 58 56 56 58 60 52 50 53 50 51 56 55 63 56 64 55 61 55 52 48
46 47 48 49 49 49 49 51 50 50 51 52 51 51 50 52 53 55 57 57 57 58 57 55 54 54 54 54 54 55 55 53 54 60 52 57 55 62 56 57 46 45 47
51 52 51 51 50 50 50 52 52 54 52 49 49 50 52 53 56 58 58 58 57 56 56 56 57 55 52 51 52 50 53 59 62 56 59 59 58 57 54 51 48 50 47
55 54 52 50 50 51 51 52 54 51 51 51 51 54 55 56 58 58 59 58 58 57 55 52 52 54 54 54 56 54 54 57 58 59 63 59 51 55 56 55 54 51 50
52 50 49 48 50 50 52 51 52 52 53 55 55 56 57 57 55 54 54 56 58 60 58 54 51 52 53 54 56 57 59 60 60 59 57 53 54 57 53 48 51 51 46
47 46 47 48 48 49 50 52 52 53 55 56 55 54 53 51 52 52 52 54 54 54 56 57 56 53 53 53 54 57 55 56 57 55 57 53 55 56 46 58 55 53 53
45 46 44 46 48 52 55 53 52 54 56 54 51 47 45 45 44 44 45 45 46 48 48 48 47 46 48 50 50 50 51 52 53 53 47 48 53 53 55 56 59 48 55
41 41 43 44 47 49 51 53 55 56 51 50 47 45 44 40 37 36 34 33 34 37 42 45 48 49 51 52 54 54 57 56 54 44 52 47 61 59 59 61 56 55 52
43 45 47 48 50 52 54 56 54 51 51 45 44 45 40 37 30 30 32 32 32 34 34 38 39 40 41 42 43 44 46 49 49 51 50 49 52 56 59 60 59 57 58
47 50 50 51 52 55 54 54 53 51 49 50 47 44 41 37 37 38 35 36 35 33 37 39 41 41 41 43 44 46 47 46 46 48 51 52 56 59 61 62 62 63 65
50 52 53 54 57 55 52 52 49 50 54 53 51 44 42 40 39 38 39 38 37 37 40 43 41 44 46 48 49 49 49 51 52 52 54 56 59 61 62 63 65 67 67
51 52 53 55 56 54 51 51 51 54 52 52 51 51 48 45 43 43 43 43 41 41 41 44 46 47 49 52 53 54 57 57 56 57 59 61 63 63 64 66 68 71 72
49 51 52 54 54 53 53 52 54 54 55 56 54 54 52 51 49 48 48 49 49 47 48 48 50 51 53 55 56 57 58 60 62 64 65 64 65 66 69 72 73 74 74
50 51 52 52 53 54 55 55 55 55 55 56 56 56 56 53 53 52 53 53 54 56 56 57 58 57 58 61 63 63 63 64 64 68 69 69 70 72 73 75 76 78 77
52 54 56 56 56 55 55 56 58 59 60 61 60 59 58 56 56 58 60 60 60 61 62 63 64 65 66 67 68 68 70 70 70 69 72 73 75 76 78 77 76 74 74
57 58 58 56 54 53 55 57 58 59 59 60 60 60 62 60 61 63 66 64 65 65 66 67 68 69 70 71 72 73 72 72 74 76 78 79 81 82 80 79 80 79 79
58 59 60 60 63 60 58 60 61 63 64 66 66 65 65 66 66 67 67 68 70 70 70 70 71 73 73 74 75 77 77 77 79 80 81 83 84 85 85 84 84 82 78
61 62 63 64 65 65 64 66 68 68 69 67 69 70 69 70 71 72 73 74 74 75 76 74 75 77 78 80 79 79 79 80 82 84 86 86 86 86 86 84 83 81 80
64 64 67 68 69 70 69 69 71 74 75 76 76 77 77 75 76 77 77 76 76 76 76 76 77 79 82 82 84 84 84 85 86 86 86 87 87 87 85 83 84 83 83
68 68 70 72 73 74 74 75 76 78 80 81 82 82 82 81 80 80 79 78 79 80 80 80 82 85 84 85 85 85 85 86 86 88 87 85 84 83 85 85 85 85 85
73 74 76 78 79 79 80 81 82 82 83 84 84 83 83 83 83 83 83 84 85 85 86 87 87 87 87 88 88 89 89 88 88 88 86 86 86 85 86 85 84 80 79
80 81 82 83 83 82 83 84 85 85 84 85 86 88 88 88 88 88 88 87 87 87 87 87 88 88 90 91 90 90 88 87 87 88 87 87 87 84 80 77 73 69 68
83 83 84 84 84 86 87 89 89 90 91 92 94 95 95 95 92 89 87 88 88 86 87 89 90 91 90 88 86 86 87 88 88 87 84 82 76 70 66 62 58 58 57
85 87 89 90 91 92 93 93 93 93 94 94 94 92 89 88 88 86 85 86 86 86 87 87 86 85 84 85 85 85 86 85 83 79 74 66 60 55 51 50 51 49 44
Wind_Direction
265 264 268 266 261 263 268 270 272 275 277 280 283 286 286 289 292 293 293 295 297 298 299 301 300 298 301 297 296 293 295 307 275 295 287 305 306 306 294 291 295 298 303
264 268 267 265 265 268 272 273 276 279 279 280 280 285 286 285 286 290 293 296 297 298 299 300 299 300 299 297 294 296 296 303 284 281 302 285 299 306 299 313 302 297 298
267 268 268 268 269 270 271 274 276 280 283 285 285 286 286 286 287 287 287 287 288 290 291 292 293 292 291 298 294 283 291 287 282 284 285 284 301 305 297 306 298 302 299
266 268 270 271 272 274 277 281 284 286 286 285 287 292 295 294 293 292 290 289 290 290 291 291 291 289 290 290 295 295 290 288 287 281 295 293 288 300 304 301 298 303 298
268 271 273 274 276 278 279 280 281 282 286 293 294 294 293 291 289 287 287 288 292 297 302 302 300 295 290 289 291 291 291 288 290 292 294 286 290 297 292 297 298 303 305
268 272 274 275 275 274 274 276 282 291 297 295 294 293 290 288 289 291 297 298 299 298 297 299 298 298 294 286 292 294 290 289 288 288 290 297 285 293 284 292 305 297 301
268 268 268 269 271 274 279 287 294 296 296 294 291 289 289 290 293 296 299 300 302 302 302 299 298 295 294 294 289 289 290 291 292 290 292 289 290 294 289 302 301 303 298
263 266 267 270 276 283 289 292 294 294 290 287 288 290 291 295 297 299 299 300 300 301 302 301 297 295 294 292 292 294 296 296 293 293 289 289 296 289 287 295 298 301 306
264 268 276 282 285 289 291 291 289 285 284 283 284 286 290 292 296 299 301 302 301 302 302 303 302 301 300 299 297 294 293 292 292 294 284 291 293 292 298 303 303 302 305
270 275 280 285 287 289 289 288 283 280 278 278 280 281 280 284 290 293 297 301 307 310 311 310 309 306 303 301 301 301 297 294 297 285 294 288 292 290 293 300 293 299 292
276 280 283 285 286 286 284 280 276 273 273 276 280 280 277 278 282 288 293 297 303 309 312 313 313 311 309 308 307 304 300 298 296 292 291 291 288 288 292 291 293 292 294
279 283 283 283 283 282 279 275 273 274 273 276 277 277 277 281 283 286 293 297 303 303 307 303 305 306 307 307 306 304 303 300 296 295 293 292 289 289 290 290 293 294 295
282 282 281 280 281 279 275 274 275 276 276 276 274 274 275 277 281 283 289 293 295 294 294 292 295 300 301 301 300 299 299 296 294 292 291 291 291 291 292 293 295 296 297
277 277 277 278 278 277 275 275 276 280 278 275 274 275 276 278 279 280 282 284 288 288 289 289 293 300 302 298 295 296 295 293 291 290 290 290 290 289 289 291 292 294 294
276 277 280 282 281 277 275 275 275 277 278 278 277 278 281 283 283 285 287 289 291 291 289 289 292 295 294 295 294 291 291 290 289 288 286 286 287 289 291 292 293 294 295
274 277 279 279 279 278 278 276 274 275 276 278 277 278 280 283 286 288 290 293 293 295 294 294 294 292 291 292 292 290 287 285 284 285 285 285 287 291 292 293 295 296 297
274 275 275 274 275 274 274 275 276 277 277 281 282 282 283 286 289 292 294 293 292 293 292 292 293 293 293 292 292 291 290 289 288 287 288 290 292 293 294 294 295 295 294
271 273 273 273 270 270 272 274 277 279 280 282 283 284 286 288 289 289 288 287 288 289 290 290 292 292 292 291 291 292 292 292 292 292 293 294 294 295 296 296 296 297 297
268 270 271 270 271 272 273 276 278 279 279 280 281 281 283 284 285 285 286 287 289 289 288 289 289 290 291 292 293 293 294 294 295 296 296 297 297 297 297 298 298 296 292
265 268 270 271 272 274 275 277 278 279 280 280 282 283 283 284 285 286 287 288 288 288 288 289 291 293 295 296 296 296 297 297 297 298 297 297 297 297 296 295 294 292 291
268 270 271 272 272 274 277 278 280 282 282 283 283 284 285 286 285 285 287 288 288 289 291 292 293 294 294 296 298 298 299 300 300 299 298 298 297 296 294 292 291 290 289
270 270 270 271 272 272 274 276 278 278 279 281 282 283 284 285 286 287 287 288 290 291 293 295 295 296 298 299 300 300 301 301 299 298 296 295 293 292 292 291 289 288 287
269 270 271 272 273 274 275 277 278 278 279 280 281 284 285 284 286 288 290 291 292 293 294 295 297 298 300 301 301 301 300 299 297 295 293 293 293 292 292 291 291 289 287
269 270 270 271 272 273 275 276 277 279 280 280 281 283 282 283 284 286 288 290 292 293 295 297 299 299 300 299 298 298 297 296 295 294 294 294 293 293 293 291 290 288 288
266 267 268 270 271 272 272 272 273 274 275 277 278 278 279 282 284 286 289 292 294 296 297 298 299 298 297 297 296 296 295 294 294 294 295 295 295 293 292 291 290 289 290
262 263 263 265 266 267 268 269 271 273 275 277 279 280 281 282 286 290 293 295 296 296 297 296 295 295 296 295 295 295 295 296 297 297 297 294 293 293 293 293 293 292 291
Height
5807 5807 5807 5806 5805 5804 5803 5801 5799 5797 5795 5793 5790 5787 5783 5781 5777 5773 5769 5765 5760 5756 5751 5747 5744 5738 5733 5728 5722 5718 5713 5710 5695 5700 5693 5688 5684 5681 5673 5668 5666 5663 5660
5797 5798 5797 5796 5795 5794 5793 5791 5789 5787 5784 5781 5779 5776 5773 5769 5764 5760 5757 5753 5749 5746 5741 5737 5733 5727 5722 5717 5712 5707 5702 5701 5692 5684 5682 5678 5674 5671 5664 5658 5654 5651 5649
5786 5785 5785 5784 5784 5783 5782 5781 5778 5776 5774 5771 5768 5765 5761 5758 5755 5750 5745 5741 5737 5733 5728 5724 5720 5715 5712 5708 5691 5699 5692 5687 5685 5678 5676 5671 5662 5659 5655 5650 5645 5641 5638
5775 5774 5774 5774 5773 5772 5771 5769 5767 5765 5762 5759 5756 5754 5751 5747 5743 5739 5735 5730 5726 5721 5716 5711 5707 5702 5699 5697 5693 5686 5681 5678 5673 5668 5663 5658 5652 5650 5644 5640 5635 5630 5627
5762 5762 5762 5762 5761 5760 5759 5757 5755 5752 5750 5748 5745 5742 5739 5735 5731 5726 5721 5717 5713 5709 5705 5700 5695 5690 5686 5682 5679 5674 5672 5666 5661 5656 5652 5646 5642 5639 5634 5628 5624 5620 5615
5750 5750 5750 5749 5749 5747 5746 5745 5743 5740 5738 5735 5732 5729 5725 5721 5717 5713 5709 5705 5700 5695 5691 5687 5682 5678 5673 5669 5666 5661 5658 5654 5649 5645 5641 5635 5631 5627 5621 5617 5612 5608 5604
5736 5736 5737 5737 5736 5734 5733 5732 5730 5728 5724 5721 5718 5715 5711 5707 5704 5701 5698 5693 5688 5683 5678 5674 5670 5665 5660 5657 5653 5649 5644 5640 5636 5633 5627 5624 5618 5614 5611 5605 5601 5597 5592
5724 5724 5724 5723 5722 5721 5720 5719 5717 5714 5711 5708 5705 5702 5699 5696 5693 5689 5685 5680 5676 5672 5667 5662 5658 5652 5648 5644 5640 5637 5633 5627 5623 5620 5614 5607 5607 5601 5598 5593 5589 5584 5580
5712 5712 5711 5711 5710 5709 5708 5706 5704 5701 5698 5694 5691 5689 5687 5684 5682 5678 5674 5670 5665 5660 5657 5651 5646 5641 5637 5632 5628 5624 5619 5615 5610 5606 5601 5599 5594 5590 5584 5578 5574 5570 5567
5700 5700 5700 5699 5698 5696 5695 5693 5691 5688 5685 5682 5680 5677 5675 5672 5669 5666 5662 5658 5654 5649 5645 5640 5635 5631 5626 5621 5618 5613 5609 5603 5598 5594 5590 5587 5583 5578 5571 5566 5561 5556 5552
5688 5687 5686 5685 5684 5682 5681 5679 5676 5674 5672 5670 5668 5666 5663 5660 5656 5652 5650 5645 5641 5637 5633 5629 5625 5621 5616 5611 5605 5600 5596 5592 5588 5584 5580 5575 5571 5565 5560 5554 5549 5544 5539
5673 5674 5673 5672 5670 5669 5667 5664 5662 5661 5660 5658 5655 5654 5652 5648 5645 5642 5638 5635 5630 5624 5621 5617 5614 5609 5604 5599 5595 5590 5586 5582 5576 5573 5569 5564 5559 5554 5549 5543 5538 5532 5528
5659 5658 5657 5656 5655 5654 5653 5652 5652 5650 5648 5646 5643 5639 5636 5634 5631 5626 5622 5618 5614 5610 5607 5604 5598 5595 5592 5587 5583 5578 5573 5569 5564 5560 5556 5551 5546 5541 5536 5530 5525 5520 5515
5644 5644 5643 5642 5641 5640 5640 5639 5638 5637 5635 5632 5630 5628 5624 5620 5616 5613 5610 5607 5602 5597 5591 5588 5584 5581 5578 5573 5568 5565 5560 5555 5550 5546 5541 5536 5531 5525 5520 5514 5509 5502 5499
5631 5630 5629 5628 5628 5627 5626 5625 5624 5623 5622 5621 5618 5615 5612 5609 5604 5601 5597 5595 5590 5584 5580 5573 5569 5565 5560 5556 5552 5547 5543 5539 5534 5529 5524 5519 5513 5508 5504 5497 5492 5486 5482
5616 5616 5614 5613 5614 5614 5613 5611 5609 5608 5605 5604 5602 5600 5598 5594 5590 5586 5582 5578 5574 5571 5566 5561 5555 5549 5544 5540 5536 5531 5525 5519 5513 5510 5506 5501 5496 5490 5484 5478 5472 5466 5463
5601 5600 5599 5598 5598 5597 5596 5596 5596 5594 5591 5589 5586 5583 5580 5577 5572 5569 5565 5561 5556 5552 5548 5543 5537 5532 5528 5523 5518 5513 5509 5502 5497 5492 5488 5483 5477 5472 5466 5460 5452 5446 5440
5586 5584 5584 5583 5581 5580 5580 5579 5578 5576 5573 5570 5567 5565 5562 5557 5553 5550 5546 5540 5535 5531 5527 5522 5517 5512 5506 5502 5497 5492 5487 5482 5478 5472 5467 5461 5455 5450 5444 5438 5431 5423 5418
5568 5568 5568 5566 5565 5562 5560 5559 5558 5555 5553 5551 5548 5545 5541 5538 5534 5530 5525 5520 5514 5509 5505 5500 5495 5491 5487 5484 5479 5474 5469 5464 5457 5451 5445 5438 5431 5424 5418 5412 5405 5399 5393
5551 5550 5549 5547 5545 5543 5540 5539 5538 5535 5534 5529 5528 5525 5519 5516 5511 5507 5503 5498 5493 5489 5484 5479 5474 5471 5467 5463 5458 5453 5447 5441 5435 5429 5423 5416 5408 5400 5393 5385 5378 5372 5366
5531 5530 5530 5529 5526 5524 5523 5520 5518 5516 5514 5511 5507 5503 5498 5493 5489 5484 5480 5474 5470 5466 5461 5457 5452 5447 5443 5439 5434 5429 5423 5417 5409 5403 5396 5389 5381 5373 5365 5359 5352 5345 5339
5511 5509 5508 5508 5506 5504 5500 5498 5496 5493 5491 5487 5484 5481 5478 5473 5468 5464 5459 5454 5449 5445 5440 5436 5432 5426 5419 5413 5407 5402 5396 5389 5382 5376 5370 5362 5355 5347 5340 5332 5325 5318 5311
5490 5489 5488 5486 5483 5480 5477 5475 5472 5469 5467 5463 5461 5457 5454 5449 5445 5441 5436 5431 5426 5421 5416 5411 5407 5402 5395 5389 5383 5376 5371 5364 5357 5349 5342 5335 5328 5320 5311 5303 5296 5290 5284
5467 5465 5463 5461 5458 5455 5453 5450 5448 5445 5442 5439 5436 5433 5429 5424 5420 5415 5412 5407 5402 5396 5391 5387 5383 5378 5372 5364 5357 5350 5343 5337 5330 5323 5315 5308 5301 5292 5285 5278 5272 5266 5260
5441 5440 5438 5437 5434 5432 5430 5427 5424 5421 5418 5415 5411 5407 5404 5400 5397 5392 5387 5383 5379 5374 5369 5364 5358 5353 5347 5339 5332 5325 5317 5309 5302 5295 5287 5280 5272 5266 5261 5256 5250 5246 5242
5417 5416 5414 5412 5410 5408 5405 5402 5399 5396 5393 5390 5387 5384 5380 5375 5372 5367 5363 5359 5355 5349 5344 5338 5332 5326 5320 5313 5305 5298 5291 5282 5275 5268 5261 5255 5250 5246 5242 5238 5234 5230 5227